[Date Prev][Date Next][Thread Prev][Thread Next] - [Date Index][Thread Index][Author Index]

2 Line ISS Keps 3-16



ISS
1 25544U 98067A   04076.32908084  .00017747  00000-0  16897-3 0  3827
2 25544  51.6286  78.7362 0010679 282.9913 221.5759 15.66845259303749


----
Via the sarex mailing list at AMSAT.ORG courtesy of AMSAT-NA.
To unsubscribe, send "unsubscribe sarex" to Majordomo@amsat.org



AMSAT Top AMSAT Home